sat.trackr.live / text

‹ back to catalog

STARLINK-35196

NORAD 66007 · 2025-232C

PAYLOAD ACTIVE UNKNOWN

§ Identity

Operator
Country
US
Launch date
2025-10-16
Launch site
AFETR
Launch vehicle
Mass (kg)
RCS (m²)

Purposes: comms

External: N2YO · Heavens-Above · Gunter

§ Orbital elements

Epoch: 2026-05-25T03:29:28.098240Z

Period
94.10 min
Inclination
53.1588°
Eccentricity
0.0001273
Mean motion
15.30211397 rev/d
Perigee alt
474.3 km
Apogee alt
476.1 km
Semi-major
6,853.3 km
B*
4.9372e-4
RAAN
108.6106°
Arg perigee
125.9644°
Mean anomaly
234.1475°
Rev number
3,513

§ Raw data

STARLINK-351961 66007U 25232C   26145.14546410  .00014297  00000+0  49372-3 0  99962 66007  53.1588 108.6106 0001273 125.9644 234.1475 15.30211397 35137

JSON: /api/v1/satellites/66007 · /tle

For live sub-satellite position, see the globe view (requires WebGL).

§ Visibility from observer

Set your observer location to see the next 7 days of passes ≥ 10°. The values pass through the URL so the page stays shareable.

No JS? Fill the form by hand. The geolocation button needs JavaScript.